BAW908 EGLL-EDDF

Flight info

Callsign BAW908
Flight time 1h 15m
Altitude 37000
Route BPK Q295 MATCH DCT REDFA L620 TACHA DCT NOLRU DCT DIXAT DIXAT1A
Aircraft B772/H-SDE2E3FGHIJ5LORVWXY/LB1D1

Departure

Time 2026-05-05 13:35
Airport London Heathrow Airport (EGLL)

Arrival

Time 2026-05-05 14:50
Airport Frankfurt Main Airport (EDDF)
Time Latitude Longitude Altitude Speed Heading
2026-05-05 13:12 51.47181 -0.48233 91 ft 0 kts 89°
2026-05-05 13:21 51.47181 -0.48261 91 ft 4 kts 89°
2026-05-05 13:21 51.47181 -0.48297 92 ft 4 kts 93°
2026-05-05 13:22 51.47186 -0.48332 92 ft 4 kts 130°
2026-05-05 13:22 51.47204 -0.48354 93 ft 4 kts 163°
2026-05-05 13:22 51.47228 -0.48360 92 ft 2 kts 179°
2026-05-05 13:22 51.47229 -0.48360 91 ft 0 kts 179°
2026-05-05 13:25 51.47227 -0.48360 91 ft 1 kts 179°
2026-05-05 13:25 51.47218 -0.48360 94 ft 1 kts 179°
2026-05-05 13:25 51.47210 -0.48360 93 ft 1 kts 179°
2026-05-05 13:25 51.47199 -0.48360 91 ft 3 kts 179°
2026-05-05 13:26 51.47155 -0.48360 91 ft 5 kts 179°
2026-05-05 13:26 51.47120 -0.48360 91 ft 5 kts 179°
2026-05-05 13:26 51.47103 -0.48359 91 ft 1 kts 179°
2026-05-05 13:26 51.47097 -0.48359 91 ft 1 kts 179°
2026-05-05 13:27 51.47090 -0.48359 91 ft 2 kts 179°
2026-05-05 13:27 51.47043 -0.48359 92 ft 12 kts 179°
2026-05-05 13:27 51.46956 -0.48358 94 ft 13 kts 179°
2026-05-05 13:27 51.46870 -0.48357 94 ft 13 kts 179°
2026-05-05 13:28 51.46773 -0.48361 94 ft 14 kts 194°
2026-05-05 13:28 51.46741 -0.48496 91 ft 14 kts 269°
2026-05-05 13:28 51.46740 -0.48652 91 ft 11 kts 269°
2026-05-05 13:28 51.46739 -0.48710 91 ft 1 kts 263°
2026-05-05 13:29 51.46735 -0.48722 92 ft 1 kts 245°
2026-05-05 13:29 51.46729 -0.48732 95 ft 1 kts 224°
2026-05-05 13:29 51.46717 -0.48741 93 ft 5 kts 202°
2026-05-05 13:29 51.46691 -0.48748 96 ft 2 kts 184°
2026-05-05 13:30 51.46675 -0.48749 93 ft 2 kts 182°
2026-05-05 13:30 51.46673 -0.48749 95 ft 0 kts 181°
2026-05-05 13:31 51.46661 -0.48750 94 ft 2 kts 181°
2026-05-05 13:31 51.46645 -0.48751 94 ft 2 kts 184°
2026-05-05 13:32 51.46629 -0.48756 94 ft 2 kts 194°
2026-05-05 13:32 51.46614 -0.48764 95 ft 2 kts 198°
2026-05-05 13:32 51.46610 -0.48766 94 ft 0 kts 198°
2026-05-05 13:32 51.46609 -0.48767 94 ft 0 kts 198°
2026-05-05 13:33 51.46598 -0.48773 94 ft 6 kts 198°
2026-05-05 13:33 51.46540 -0.48787 91 ft 10 kts 177°
2026-05-05 13:33 51.46488 -0.48728 96 ft 8 kts 117°
2026-05-05 13:33 51.46479 -0.48665 95 ft 3 kts 94°
2026-05-05 13:34 51.46479 -0.48638 95 ft 2 kts 91°
2026-05-05 13:34 51.46477 -0.48469 95 ft 38 kts 90°
2026-05-05 13:34 51.46480 -0.47630 90 ft 110 kts 89°
2026-05-05 13:34 51.46485 -0.46073 171 ft 161 kts 88°
2026-05-05 13:35 51.46445 -0.44273 918 ft 161 kts 91°
2026-05-05 13:35 51.46350 -0.42414 1523 ft 172 kts 88°
2026-05-05 13:35 51.46759 -0.40577 1685 ft 187 kts 46°
2026-05-05 13:35 51.47711 -0.38991 1854 ft 210 kts 49°
2026-05-05 13:36 51.48696 -0.37093 2098 ft 234 kts 50°
2026-05-05 13:36 51.49745 -0.35076 2632 ft 243 kts 49°
2026-05-05 13:36 51.50861 -0.32959 3345 ft 248 kts 49°
2026-05-05 13:36 51.51955 -0.30808 3991 ft 250 kts 56°
2026-05-05 13:37 51.52694 -0.28284 4595 ft 258 kts 69°
2026-05-05 13:37 51.53279 -0.25542 5423 ft 260 kts 70°
2026-05-05 13:37 51.53865 -0.22776 6178 ft 264 kts 70°
2026-05-05 13:37 51.54531 -0.20009 6710 ft 268 kts 59°
2026-05-05 13:38 51.55875 -0.17934 7211 ft 274 kts 26°
2026-05-05 13:38 51.57716 -0.17272 7916 ft 274 kts 358°
2026-05-05 13:38 51.59542 -0.18047 8531 ft 275 kts 334°
2026-05-05 13:38 51.61362 -0.19012 8856 ft 282 kts 359°
2026-05-05 13:39 51.63251 -0.18263 9451 ft 281 kts 26°
2026-05-05 13:39 51.65059 -0.16971 9883 ft 289 kts 21°
2026-05-05 13:39 51.66963 -0.15814 10308 ft 300 kts 20°
2026-05-05 13:39 51.68987 -0.14568 10491 ft 321 kts 21°
2026-05-05 13:40 51.71104 -0.13224 10997 ft 332 kts 21°
2026-05-05 13:40 51.73189 -0.11587 11496 ft 339 kts 36°
2026-05-05 13:40 51.74748 -0.08732 12262 ft 344 kts 60°
2026-05-05 13:40 51.75556 -0.05112 13241 ft 344 kts 79°
2026-05-05 13:41 51.75896 -0.01251 14020 ft 351 kts 83°
2026-05-05 13:41 51.76180 0.02688 14800 ft 356 kts 83°
2026-05-05 13:41 51.76466 0.06672 15639 ft 359 kts 83°
2026-05-05 13:41 51.76774 0.10701 16474 ft 363 kts 83°
2026-05-05 13:42 51.77099 0.14773 17249 ft 368 kts 83°
2026-05-05 13:42 51.77434 0.18900 18051 ft 373 kts 83°
2026-05-05 13:42 51.77766 0.23090 18772 ft 378 kts 83°
2026-05-05 13:42 51.78219 0.27296 19458 ft 383 kts 77°
2026-05-05 13:43 51.78870 0.31486 20143 ft 387 kts 76°
2026-05-05 13:43 51.79559 0.35719 20867 ft 392 kts 76°
2026-05-05 13:43 51.80259 0.39998 21579 ft 396 kts 76°
2026-05-05 13:43 51.80963 0.44322 22293 ft 400 kts 76°
2026-05-05 13:44 51.81669 0.48697 22998 ft 405 kts 76°
2026-05-05 13:44 51.82377 0.53122 23681 ft 409 kts 77°
2026-05-05 13:44 51.83087 0.57592 24275 ft 413 kts 77°
2026-05-05 13:44 51.83800 0.62110 24867 ft 417 kts 77°
2026-05-05 13:45 51.84516 0.66673 25441 ft 421 kts 77°
2026-05-05 13:45 51.85238 0.71283 25998 ft 425 kts 77°
2026-05-05 13:45 51.85965 0.75941 26569 ft 429 kts 78°
2026-05-05 13:45 51.86695 0.80638 27098 ft 433 kts 78°
2026-05-05 13:46 51.87431 0.85382 27633 ft 437 kts 78°
2026-05-05 13:46 51.88173 0.90173 28160 ft 440 kts 78°
2026-05-05 13:46 51.88918 0.94998 28651 ft 444 kts 78°
2026-05-05 13:46 51.89666 0.99863 29144 ft 447 kts 78°
2026-05-05 13:47 51.90418 1.04765 29615 ft 451 kts 78°
2026-05-05 13:47 51.91174 1.09709 30054 ft 454 kts 78°
2026-05-05 13:47 51.91933 1.14690 30434 ft 457 kts 78°
2026-05-05 13:47 51.92696 1.19706 30775 ft 460 kts 78°
2026-05-05 13:48 51.93462 1.24759 31143 ft 463 kts 78°
2026-05-05 13:48 51.94229 1.29837 31503 ft 466 kts 78°
2026-05-05 13:48 51.94999 1.34952 31821 ft 469 kts 78°
2026-05-05 13:48 51.95772 1.40101 32122 ft 472 kts 78°
2026-05-05 13:49 51.96548 1.45294 32423 ft 475 kts 78°
2026-05-05 13:49 51.97326 1.50512 32727 ft 478 kts 78°
2026-05-05 13:49 51.98106 1.55761 33042 ft 480 kts 78°
2026-05-05 13:49 51.98887 1.61031 33349 ft 482 kts 78°
2026-05-05 13:50 51.99669 1.66329 33627 ft 484 kts 78°
2026-05-05 13:50 52.00453 1.71659 33882 ft 487 kts 78°
2026-05-05 13:50 52.01238 1.77014 34134 ft 489 kts 78°
2026-05-05 13:50 52.02023 1.82388 34390 ft 490 kts 78°
2026-05-05 13:51 52.02795 1.87691 34702 ft 489 kts 78°
2026-05-05 13:51 52.03574 1.93060 35061 ft 488 kts 78°
2026-05-05 13:51 52.04348 1.98412 35381 ft 487 kts 78°
2026-05-05 13:51 52.05119 2.03762 35698 ft 486 kts 78°
2026-05-05 13:52 52.05888 2.09116 36001 ft 486 kts 78°
2026-05-05 13:52 52.06651 2.14457 36309 ft 485 kts 78°
2026-05-05 13:52 52.07413 2.19798 36606 ft 485 kts 78°
2026-05-05 13:52 52.08171 2.25139 36880 ft 485 kts 78°
2026-05-05 13:53 52.09692 2.35902 36958 ft 489 kts 78°
2026-05-05 13:53 52.11198 2.46621 36955 ft 484 kts 78°
2026-05-05 13:54 52.13015 2.57155 36967 ft 484 kts 73°
2026-05-05 13:54 52.15045 2.67617 36962 ft 485 kts 73°
2026-05-05 13:55 52.17056 2.78108 36960 ft 486 kts 74°
2026-05-05 13:55 52.19036 2.88647 36956 ft 487 kts 74°
2026-05-05 13:56 52.21002 2.99207 36959 ft 487 kts 74°
2026-05-05 13:56 52.22965 3.09787 36956 ft 487 kts 74°
2026-05-05 13:57 52.24611 3.20463 36954 ft 484 kts 87°
2026-05-05 13:57 52.24590 3.25930 36969 ft 481 kts 98°
2026-05-05 13:57 52.23994 3.31279 36952 ft 479 kts 109°
2026-05-05 13:58 52.21625 3.41366 36952 ft 477 kts 114°
2026-05-05 13:58 52.19114 3.51401 36947 ft 479 kts 114°
2026-05-05 13:59 52.15406 3.66538 36939 ft 480 kts 114°
2026-05-05 14:00 52.12151 3.79964 36936 ft 478 kts 114°
2026-05-05 14:00 52.09291 3.91700 36924 ft 477 kts 114°
2026-05-05 14:01 52.06841 4.01694 36918 ft 476 kts 114°
2026-05-05 14:01 52.04384 4.11666 36929 ft 475 kts 115°
2026-05-05 14:02 52.01939 4.21547 36924 ft 475 kts 115°
2026-05-05 14:02 51.99469 4.31481 36917 ft 475 kts 115°
2026-05-05 14:03 51.96991 4.41402 36904 ft 475 kts 115°
2026-05-05 14:03 51.94504 4.51319 36910 ft 475 kts 115°
2026-05-05 14:04 51.92008 4.61226 36918 ft 475 kts 115°
2026-05-05 14:04 51.89501 4.71133 36907 ft 475 kts 115°
2026-05-05 14:05 51.86986 4.81024 36903 ft 475 kts 115°
2026-05-05 14:05 51.84462 4.90913 36900 ft 475 kts 115°
2026-05-05 14:06 51.81930 5.00786 36900 ft 475 kts 116°
2026-05-05 14:06 51.79390 5.10649 36899 ft 475 kts 116°
2026-05-05 14:07 51.76841 5.20503 36900 ft 476 kts 116°
2026-05-05 14:07 51.74283 5.30348 36898 ft 476 kts 116°
2026-05-05 14:08 51.71716 5.40186 36902 ft 476 kts 116°
2026-05-05 14:08 51.69138 5.50022 36907 ft 476 kts 116°
2026-05-05 14:09 51.66553 5.59841 36910 ft 476 kts 116°
2026-05-05 14:09 51.63962 5.69644 36912 ft 475 kts 116°
2026-05-05 14:10 51.61384 5.79357 36911 ft 475 kts 117°
2026-05-05 14:10 51.58766 5.89178 36914 ft 475 kts 117°
2026-05-05 14:11 51.56176 5.98853 36882 ft 474 kts 117°
2026-05-05 14:11 51.53560 6.08583 36895 ft 474 kts 117°
2026-05-05 14:12 51.50937 6.18308 36876 ft 474 kts 117°
2026-05-05 14:12 51.49646 6.23108 36865 ft 463 kts 116°
2026-05-05 14:12 51.48829 6.26307 36786 ft 456 kts 116°
2026-05-05 14:13 51.47677 6.31011 36442 ft 450 kts 115°
2026-05-05 14:13 51.46560 6.35667 36076 ft 445 kts 115°
2026-05-05 14:13 51.45470 6.40211 35689 ft 440 kts 116°
2026-05-05 14:13 51.44369 6.44766 35304 ft 436 kts 116°
2026-05-05 14:14 51.43269 6.49270 34908 ft 432 kts 116°
2026-05-05 14:14 51.42172 6.53733 34519 ft 429 kts 116°
2026-05-05 14:14 51.41078 6.58159 34109 ft 426 kts 117°
2026-05-05 14:14 51.39990 6.62550 33687 ft 422 kts 117°
2026-05-05 14:15 51.38544 6.68364 33105 ft 418 kts 117°
2026-05-05 14:15 51.37834 6.71217 32839 ft 415 kts 117°
2026-05-05 14:15 51.36769 6.75488 32428 ft 412 kts 117°
2026-05-05 14:15 51.35711 6.79723 32045 ft 408 kts 117°
2026-05-05 14:16 51.34662 6.83918 31663 ft 404 kts 117°
2026-05-05 14:16 51.33620 6.88075 31285 ft 401 kts 117°
2026-05-05 14:16 51.32586 6.92193 30907 ft 398 kts 116°
2026-05-05 14:16 51.31557 6.96280 30528 ft 395 kts 116°
2026-05-05 14:17 51.30535 7.00338 30164 ft 393 kts 116°
2026-05-05 14:17 51.29516 7.04376 29775 ft 390 kts 116°
2026-05-05 14:17 51.28503 7.08385 29365 ft 388 kts 116°
2026-05-05 14:17 51.27443 7.12301 28915 ft 378 kts 125°
2026-05-05 14:18 51.25832 7.15492 28556 ft 365 kts 143°
2026-05-05 14:18 51.23752 7.17687 28154 ft 354 kts 157°
2026-05-05 14:18 51.21547 7.19397 27763 ft 352 kts 158°
2026-05-05 14:18 51.19339 7.21060 27368 ft 350 kts 158°
2026-05-05 14:19 51.17148 7.22736 26975 ft 349 kts 157°
2026-05-05 14:19 51.14968 7.24436 26573 ft 348 kts 156°
2026-05-05 14:19 51.12802 7.26138 26200 ft 347 kts 156°
2026-05-05 14:19 51.10645 7.27859 25821 ft 346 kts 155°
2026-05-05 14:20 51.08508 7.29623 25449 ft 346 kts 155°
2026-05-05 14:20 51.06377 7.31390 25074 ft 345 kts 155°
2026-05-05 14:20 51.04246 7.33151 24688 ft 345 kts 155°
2026-05-05 14:20 51.02108 7.34914 24275 ft 347 kts 154°
2026-05-05 14:21 50.99966 7.36678 23853 ft 348 kts 154°
2026-05-05 14:21 50.97843 7.38425 23442 ft 349 kts 154°
2026-05-05 14:21 50.95683 7.40201 22938 ft 350 kts 154°
2026-05-05 14:21 50.93521 7.41978 22488 ft 351 kts 154°
2026-05-05 14:22 50.91353 7.43757 22050 ft 351 kts 154°
2026-05-05 14:22 50.89187 7.45532 21623 ft 350 kts 154°
2026-05-05 14:22 50.87022 7.47303 21202 ft 350 kts 154°
2026-05-05 14:22 50.84858 7.49071 20778 ft 350 kts 154°
2026-05-05 14:23 50.82690 7.50840 20357 ft 351 kts 154°
2026-05-05 14:23 50.80524 7.52607 19936 ft 351 kts 154°
2026-05-05 14:23 50.78352 7.54377 19510 ft 351 kts 154°
2026-05-05 14:23 50.76175 7.56150 19082 ft 352 kts 154°
2026-05-05 14:24 50.73998 7.57922 18667 ft 353 kts 154°
2026-05-05 14:24 50.71812 7.59698 18246 ft 354 kts 154°
2026-05-05 14:24 50.69621 7.61475 17767 ft 354 kts 154°
2026-05-05 14:24 50.67427 7.63254 17302 ft 355 kts 154°
2026-05-05 14:25 50.65232 7.65031 16860 ft 354 kts 154°
2026-05-05 14:25 50.63046 7.66800 16433 ft 353 kts 154°
2026-05-05 14:25 50.60861 7.68565 15996 ft 353 kts 154°
2026-05-05 14:25 50.58679 7.70326 15595 ft 352 kts 154°
2026-05-05 14:26 50.56507 7.72076 15194 ft 350 kts 154°
2026-05-05 14:26 50.54339 7.73820 14807 ft 349 kts 154°
2026-05-05 14:26 50.52181 7.75556 14416 ft 348 kts 154°
2026-05-05 14:26 50.50026 7.77288 14028 ft 347 kts 154°
2026-05-05 14:27 50.47878 7.79013 13637 ft 346 kts 154°
2026-05-05 14:27 50.45736 7.80730 13192 ft 345 kts 154°
2026-05-05 14:27 50.43606 7.82451 12793 ft 343 kts 152°
2026-05-05 14:27 50.41651 7.84490 12465 ft 335 kts 143°
2026-05-05 14:28 50.39850 7.86765 12162 ft 330 kts 141°
2026-05-05 14:28 50.38097 7.89055 11829 ft 326 kts 141°
2026-05-05 14:28 50.36364 7.91294 11520 ft 320 kts 142°
2026-05-05 14:28 50.34654 7.93464 11226 ft 314 kts 142°
2026-05-05 14:29 50.32967 7.95577 10932 ft 307 kts 142°
2026-05-05 14:29 50.31312 7.97635 10657 ft 301 kts 142°
2026-05-05 14:29 50.29687 7.99645 10374 ft 295 kts 142°
2026-05-05 14:29 50.28092 8.01612 10122 ft 290 kts 142°
2026-05-05 14:30 50.26531 8.03551 9922 ft 280 kts 140°
2026-05-05 14:30 50.25219 8.05726 9840 ft 274 kts 129°
2026-05-05 14:30 50.24060 8.08099 9850 ft 276 kts 128°
2026-05-05 14:30 50.22925 8.10503 9828 ft 273 kts 128°
2026-05-05 14:31 50.21794 8.12880 9828 ft 272 kts 128°
2026-05-05 14:31 50.20658 8.15239 9852 ft 272 kts 128°
2026-05-05 14:31 50.19510 8.17602 9866 ft 274 kts 129°
2026-05-05 14:31 50.18361 8.19949 9855 ft 277 kts 129°
2026-05-05 14:32 50.17184 8.22340 9837 ft 278 kts 129°
2026-05-05 14:32 50.16010 8.24719 9840 ft 276 kts 129°
2026-05-05 14:32 50.14828 8.27114 9837 ft 274 kts 129°
2026-05-05 14:32 50.13685 8.29420 9851 ft 271 kts 129°
2026-05-05 14:33 50.12516 8.31773 9857 ft 271 kts 129°
2026-05-05 14:33 50.11379 8.34057 9856 ft 271 kts 129°
2026-05-05 14:33 50.10401 8.36531 9844 ft 272 kts 109°
2026-05-05 14:33 50.10220 8.39489 9856 ft 281 kts 83°
2026-05-05 14:34 50.10776 8.42402 9856 ft 282 kts 71°
2026-05-05 14:34 50.11477 8.45268 9862 ft 284 kts 71°
2026-05-05 14:34 50.12182 8.48130 9694 ft 281 kts 71°
2026-05-05 14:34 50.12876 8.50961 9363 ft 278 kts 71°
2026-05-05 14:35 50.13560 8.53777 8985 ft 278 kts 71°
2026-05-05 14:35 50.14238 8.56590 8613 ft 277 kts 71°
2026-05-05 14:35 50.14910 8.59391 8351 ft 273 kts 71°
2026-05-05 14:35 50.15566 8.62137 8256 ft 269 kts 71°
2026-05-05 14:36 50.16220 8.64891 8205 ft 273 kts 71°
2026-05-05 14:36 50.16883 8.67684 8156 ft 273 kts 71°
2026-05-05 14:36 50.17535 8.70425 8113 ft 266 kts 71°
2026-05-05 14:36 50.18170 8.73099 8096 ft 261 kts 71°
2026-05-05 14:37 50.18793 8.75730 8051 ft 257 kts 71°
2026-05-05 14:37 50.19406 8.78318 7925 ft 252 kts 71°
2026-05-05 14:37 50.20009 8.80878 7753 ft 251 kts 71°
2026-05-05 14:37 50.20610 8.83428 7538 ft 250 kts 71°
2026-05-05 14:38 50.21209 8.85978 7340 ft 250 kts 71°
2026-05-05 14:38 50.21808 8.88523 7147 ft 249 kts 71°
2026-05-05 14:38 50.22400 8.91046 7067 ft 246 kts 71°
2026-05-05 14:38 50.22987 8.93555 7010 ft 247 kts 71°
2026-05-05 14:39 50.23579 8.96089 6995 ft 249 kts 71°
2026-05-05 14:39 50.24175 8.98635 6992 ft 250 kts 71°
2026-05-05 14:39 50.24769 9.01176 6991 ft 249 kts 71°
2026-05-05 14:39 50.25364 9.03728 6983 ft 249 kts 71°
2026-05-05 14:40 50.25957 9.06274 6980 ft 249 kts 71°
2026-05-05 14:40 50.26549 9.08817 6987 ft 249 kts 71°
2026-05-05 14:40 50.27140 9.11359 6977 ft 249 kts 71°
2026-05-05 14:40 50.27460 9.13947 6972 ft 241 kts 97°
2026-05-05 14:41 50.26917 9.16388 6989 ft 242 kts 128°
2026-05-05 14:41 50.25645 9.18051 6997 ft 240 kts 156°
2026-05-05 14:41 50.24091 9.19002 6991 ft 238 kts 165°
2026-05-05 14:41 50.22495 9.19206 6980 ft 234 kts 193°
2026-05-05 14:42 50.21037 9.18091 6990 ft 232 kts 218°
2026-05-05 14:42 50.19959 9.16159 6995 ft 240 kts 236°
2026-05-05 14:42 50.19155 9.13929 6980 ft 238 kts 243°
2026-05-05 14:42 50.18481 9.11563 6986 ft 238 kts 246°
2026-05-05 14:43 50.17874 9.09157 6987 ft 239 kts 248°
2026-05-05 14:43 50.17289 9.06730 6992 ft 239 kts 248°
2026-05-05 14:43 50.16709 9.04294 6986 ft 240 kts 248°
2026-05-05 14:43 50.16131 9.01855 6991 ft 240 kts 248°
2026-05-05 14:44 50.15551 8.99413 6850 ft 241 kts 248°
2026-05-05 14:44 50.14969 8.96963 6515 ft 240 kts 248°
2026-05-05 14:44 50.14395 8.94544 6269 ft 239 kts 248°
2026-05-05 14:44 50.13808 8.92064 5910 ft 246 kts 248°
2026-05-05 14:45 50.13218 8.89585 5548 ft 243 kts 248°
2026-05-05 14:45 50.12630 8.87125 5195 ft 241 kts 248°
2026-05-05 14:45 50.12059 8.84732 4820 ft 232 kts 247°
2026-05-05 14:45 50.11509 8.82415 4493 ft 222 kts 248°
2026-05-05 14:46 50.10987 8.80212 4218 ft 214 kts 248°
2026-05-05 14:46 50.10473 8.78056 3857 ft 209 kts 248°
2026-05-05 14:46 50.09980 8.75996 3594 ft 200 kts 248°
2026-05-05 14:46 50.09508 8.74019 3340 ft 187 kts 249°
2026-05-05 14:47 50.09074 8.72195 3073 ft 173 kts 248°
2026-05-05 14:47 50.08658 8.70448 2835 ft 172 kts 249°
2026-05-05 14:47 50.08239 8.68693 2602 ft 173 kts 249°
2026-05-05 14:47 50.07823 8.66945 2359 ft 171 kts 248°
2026-05-05 14:48 50.07412 8.65223 2111 ft 169 kts 249°
2026-05-05 14:48 50.07013 8.63552 1878 ft 156 kts 249°
2026-05-05 14:48 50.06654 8.62042 1665 ft 141 kts 248°
2026-05-05 14:48 50.06323 8.60659 1476 ft 137 kts 249°
2026-05-05 14:49 50.05991 8.59268 1276 ft 136 kts 249°
2026-05-05 14:49 50.05665 8.57901 1070 ft 135 kts 248°
2026-05-05 14:49 50.05338 8.56533 844 ft 134 kts 249°
2026-05-05 14:49 50.05018 8.55185 668 ft 131 kts 248°
2026-05-05 14:50 50.04684 8.53818 467 ft 136 kts 248°
2026-05-05 14:50 50.04366 8.52474 358 ft 123 kts 249°
2026-05-05 14:50 50.04119 8.51432 333 ft 77 kts 248°
2026-05-05 14:50 50.03987 8.50885 329 ft 41 kts 250°
2026-05-05 14:51 50.03890 8.50510 323 ft 34 kts 239°
2026-05-05 14:51 50.03759 8.50274 321 ft 17 kts 219°
2026-05-05 14:51 50.03671 8.50185 323 ft 15 kts 189°
2026-05-05 14:51 50.03631 8.50301 327 ft 15 kts 73°
2026-05-05 14:52 50.03674 8.50475 330 ft 20 kts 70°
2026-05-05 14:52 50.03730 8.50710 333 ft 26 kts 70°
2026-05-05 14:52 50.03798 8.50997 335 ft 30 kts 70°
2026-05-05 14:52 50.03871 8.51298 335 ft 30 kts 69°
2026-05-05 14:53 50.03942 8.51596 337 ft 30 kts 70°
2026-05-05 14:53 50.04015 8.51902 351 ft 30 kts 69°
2026-05-05 14:53 50.04087 8.52204 355 ft 30 kts 69°
2026-05-05 14:53 50.04160 8.52505 358 ft 30 kts 69°
2026-05-05 14:54 50.04232 8.52807 358 ft 30 kts 70°
2026-05-05 14:54 50.04304 8.53108 369 ft 30 kts 69°
2026-05-05 14:54 50.04376 8.53410 377 ft 30 kts 69°
2026-05-05 14:54 50.04409 8.53727 380 ft 30 kts 85°
2026-05-05 14:55 50.04431 8.54046 380 ft 30 kts 84°
2026-05-05 14:55 50.04452 8.54366 377 ft 30 kts 84°
2026-05-05 14:55 50.04419 8.54617 371 ft 21 kts 119°
2026-05-05 14:55 50.04312 8.54771 368 ft 21 kts 154°
2026-05-05 14:56 50.04188 8.54843 363 ft 18 kts 161°
2026-05-05 14:56 50.04122 8.54880 362 ft 8 kts 160°
2026-05-05 14:56 50.04092 8.54897 360 ft 0 kts 160°
2026-05-05 14:57 50.04088 8.54900 359 ft 5 kts 160°
2026-05-05 14:57 50.04041 8.54926 363 ft 13 kts 159°
2026-05-05 14:57 50.03959 8.54976 364 ft 13 kts 158°
2026-05-05 14:58 50.03877 8.55025 358 ft 13 kts 153°
2026-05-05 14:58 50.03855 8.55144 361 ft 13 kts 74°
2026-05-05 14:58 50.03901 8.55332 361 ft 24 kts 69°
2026-05-05 14:58 50.03964 8.55598 358 ft 27 kts 70°
2026-05-05 14:59 50.04030 8.55872 361 ft 27 kts 70°
2026-05-05 14:59 50.04096 8.56147 360 ft 27 kts 70°
2026-05-05 14:59 50.04162 8.56422 363 ft 27 kts 69°
2026-05-05 14:59 50.04227 8.56696 367 ft 27 kts 69°
2026-05-05 15:00 50.04293 8.56971 368 ft 27 kts 70°
2026-05-05 15:00 50.04358 8.57246 369 ft 27 kts 70°
2026-05-05 15:00 50.04424 8.57520 366 ft 27 kts 69°
2026-05-05 15:00 50.04490 8.57796 370 ft 27 kts 69°
2026-05-05 15:01 50.04554 8.58070 371 ft 27 kts 70°
2026-05-05 15:01 50.04621 8.58345 375 ft 27 kts 69°
2026-05-05 15:01 50.04685 8.58612 378 ft 19 kts 70°
2026-05-05 15:01 50.04714 8.58723 373 ft 9 kts 58°
2026-05-05 15:02 50.04771 8.58747 375 ft 9 kts 348°
2026-05-05 15:02 50.04832 8.58715 370 ft 9 kts 339°
2026-05-05 15:02 50.04891 8.58681 369 ft 9 kts 340°
2026-05-05 15:02 50.04929 8.58621 368 ft 5 kts 291°
2026-05-05 15:03 50.04950 8.58578 371 ft 5 kts 326°
2026-05-05 15:03 50.04983 8.58556 369 ft 5 kts 341°
2026-05-05 15:03 50.04994 8.58550 365 ft 0 kts 341°
2026-05-05 15:03 50.05000 8.58547 367 ft 1 kts 340°
2026-05-05 15:04 50.05007 8.58543 366 ft 1 kts 340°
2026-05-05 15:04 50.05015 8.58539 365 ft 1 kts 340°
2026-05-05 15:04 50.05018 8.58537 365 ft 0 kts 340°